KF0JHJ Weather Reports


time (UTC)temp
F
wind
direction
speed
knots
gust
knots
rain 1hr
in
rain 24hr
in
rain mn
in
humidity
%
barometer
mb
20260504100615 52 210 7.8 7.8 0.00 0.00 0.00 59 994.4
20260504100113 53 203 6.1 12.2 0.00 0.00 0.00 58 994.4
20260504081506 51 241 3.5 7.0 0.00 0.00 0.00 60 996.4
20260504081001 51 225 4.3 5.2 0.00 0.00 0.00 59 996.7
20260504080458 51 219 4.3 6.1 0.00 0.00 0.00 59 996.6
20260504050311 53 194 0.9 2.6 0.00 0.00 0.00 52 999.7
20260504045809 53 109 0.0 0.9 0.00 0.00 0.00 51 1000.1
20260504045309 53 172 0.0 0.9 0.00 0.00 0.00 50 999.9
20260504044806 53 176 0.0 1.7 0.00 0.00 0.00 51 1000.1
20260504044303 53 180 0.9 1.7 0.00 0.00 0.00 51 1000.2
20260504043800 53 196 1.7 1.7 0.00 0.00 0.00 52 1000.2
20260504043258 53 168 0.0 0.9 0.00 0.00 0.00 50 1000.3
20260504042755 53 209 0.0 0.9 0.00 0.00 0.00 51 1000.5
20260504042251 53 200 0.0 1.7 0.00 0.00 0.00 52 1000.6
20260504041747 53 180 0.0 0.9 0.00 0.00 0.00 50 1000.7
20260504041243 53 165 0.0 0.9 0.00 0.00 0.00 50 1000.6
20260504040739 53 172 0.0 0.0 0.00 0.00 0.00 51 1000.8
20260504040238 53 188 0.0 0.0 0.00 0.00 0.00 50 1000.9
20260504035733 53 195 0.0 0.0 0.00 0.00 0.00 51 1001.0
20260504035231 53 195 0.0 0.0 0.00 0.00 0.00 52 1001.0
20260504034728 53 195 0.0 0.9 0.00 0.00 0.00 53 1001.1
20260504034225 52 114 0.0 0.0 0.00 0.00 0.00 54 1001.0
20260504033723 53 127 1.7 1.7 0.00 0.00 0.00 54 1001.3
20260504033220 53 114 0.0 0.9 0.00 0.00 0.00 53 1001.4
20260504032717 53 151 0.0 0.9 0.00 0.00 0.00 55 1001.5
20260504032214 54 165 0.0 0.0 0.00 0.00 0.00 56 1001.5
20260504031711 54 165 0.0 0.0 0.00 0.00 0.00 55 1001.4
20260504031208 54 165 0.0 1.7 0.00 0.00 0.00 58 1001.6
20260504030704 54 111 0.9 0.9 0.00 0.00 0.00 65 1001.6
20260504030201 54 117 0.0 0.0 0.00 0.00 0.00 56 1001.8
20260504025657 54 105 0.0 0.9 0.00 0.00 0.00 58 1001.9
20260504025155 55 140 1.7 1.7 0.00 0.00 0.00 54 1001.9
20260504024652 55 90 0.0 0.0 0.00 0.00 0.00 51 1002.0
20260504024148 55 90 0.0 0.0 0.00 0.00 0.00 51 1001.8
20260504023645 56 90 0.0 0.0 0.00 0.00 0.00 49 1001.8
20260504023141 56 90 0.0 0.0 0.00 0.00 0.00 49 1001.7
20260504022637 56 90 0.0 0.0 0.00 0.00 0.00 49 1001.9
20260504022133 56 90 0.0 0.0 0.00 0.00 0.00 49 1001.8
20260504021631 57 90 0.0 0.0 0.00 0.00 0.00 48 1001.8
20260504021127 57 90 0.0 0.0 0.00 0.00 0.00 48 1002.1
20260504020625 57 90 0.0 0.0 0.00 0.00 0.00 49 1001.8
20260504020121 58 90 0.0 0.0 0.00 0.00 0.00 50 1001.9
20260504015617 58 90 0.0 0.0 0.00 0.00 0.00 48 1002.0
20260504015114 58 90 0.0 0.0 0.00 0.00 0.00 47 1002.0
20260504014610 58 90 0.0 0.0 0.00 0.00 0.00 46 1002.1
20260504014107 59 90 0.0 0.0 0.00 0.00 0.00 45 1002.1
20260504013604 59 90 0.0 0.0 0.00 0.00 0.00 46 1002.2
20260504013101 60 90 0.0 0.0 0.00 0.00 0.00 43 1002.4
20260504012558 60 90 0.0 0.0 0.00 0.00 0.00 43 1002.2
20260504012057 61 90 0.0 0.0 0.00 0.00 0.00 42 1002.2
20260504011553 61 90 0.0 0.0 0.00 0.00 0.00 42 1002.3
20260504011049 61 166 0.0 0.0 0.00 0.00 0.00 40 1002.1
20260504010545 62 154 0.9 0.9 0.00 0.00 0.00 42 1002.3
20260504010041 63 0 0.0 0.0 0.00 0.00 0.00 39 1002.6
20260504005538 63 0 0.0 0.0 0.00 0.00 0.00 38 1002.4
20260504005035 64 97 0.0 0.0 0.00 0.00 0.00 39 1002.4
20260504004533 64 261 0.0 0.9 0.00 0.00 0.00 38 1002.2
20260504004030 65 348 0.0 0.0 0.00 0.00 0.00 36 1002.6
20260504003526 66 348 0.0 0.0 0.00 0.00 0.00 35 1002.6
20260504003023 66 0 0.0 0.9 0.00 0.00 0.00 34 1002.4
20260504002520 66 6 0.0 2.6 0.00 0.00 0.00 36 1002.6
20260504002017 67 0 0.0 1.7 0.00 0.00 0.00 34 1002.7
20260504001515 67 337 0.0 0.9 0.00 0.00 0.00 34 1002.7
20260504001011 67 131 0.0 2.6 0.00 0.00 0.00 33 1002.6
20260504000508 68 175 0.0 1.7 0.00 0.00 0.00 31 1002.6
20260504000006 68 7 0.9 1.7 0.00 0.00 0.00 31 1002.9
20260503235504 68 311 0.0 2.6 0.00 0.00 0.00 32 1002.7
20260503235000 69 334 1.7 4.3 0.00 0.00 0.00 31 1003.0
20260503234458 69 306 0.9 3.5 0.00 0.00 0.00 30 1002.8
20260503233956 69 0 0.0 4.3 0.00 0.00 0.00 30 1002.8
20260503233452 69 308 1.7 2.6 0.00 0.00 0.00 32 1003.0
20260503232948 69 241 2.6 2.6 0.00 0.00 0.00 31 1003.1
20260503232445 69 180 0.0 4.3 0.00 0.00 0.00 30 1003.0
20260503231943 69 210 1.7 5.2 0.00 0.00 0.00 30 1003.1
20260503231440 70 8 1.7 2.6 0.00 0.00 0.00 31 1003.2
20260503230937 70 278 0.0 2.6 0.00 0.00 0.00 30 1003.2
20260503230433 71 354 0.0 2.6 0.00 0.00 0.00 30 1003.0
20260503225931 71 344 1.7 2.6 0.00 0.00 0.00 29 1003.0
20260503225428 71 3 2.6 3.5 0.00 0.00 0.00 28 1003.3
20260503224923 72 308 1.7 2.6 0.00 0.00 0.00 28 1003.2
20260503224420 71 339 1.7 3.5 0.00 0.00 0.00 28 1003.2
20260503223918 73 8 2.6 7.8 0.00 0.00 0.00 28 1003.2
20260503223416 73 285 1.7 3.5 0.00 0.00 0.00 27 1003.2
20260503222916 73 236 0.0 2.6 0.00 0.00 0.00 28 1003.3
20260503222415 72 310 3.5 5.2 0.00 0.00 0.00 25 1003.3
20260503221913 73 340 2.6 5.2 0.00 0.00 0.00 26 1003.1
20260503221411 73 303 0.0 5.2 0.00 0.00 0.00 27 1003.3
20260503220907 73 345 1.7 3.5 0.00 0.00 0.00 27 1003.3
20260503220404 72 349 1.7 6.1 0.00 0.00 0.00 28 1003.4
20260503215901 73 25 2.6 3.5 0.00 0.00 0.00 27 1003.2
20260503215358 73 338 2.6 5.2 0.00 0.00 0.00 28 1003.3
20260503214855 73 352 0.0 3.5 0.00 0.00 0.00 28 1003.3
20260503214353 73 251 2.6 4.3 0.00 0.00 0.00 31 1003.5
20260503213850 72 344 2.6 4.3 0.00 0.00 0.00 28 1003.4
20260503213348 72 336 1.7 4.3 0.00 0.00 0.00 27 1003.6
20260503212844 72 329 2.6 6.1 0.00 0.00 0.00 26 1003.7
20260503212342 72 307 2.6 4.3 0.00 0.00 0.00 27 1003.7
20260503211839 72 303 1.7 7.8 0.00 0.00 0.00 29 1003.7
20260503211336 72 343 3.5 5.2 0.00 0.00 0.00 27 1003.7
20260503210831 73 324 2.6 4.3 0.00 0.00 0.00 29 1003.6
20260503210329 74 263 0.0 2.6 0.00 0.00 0.00 34 1004.0
20260503205823 73 343 0.0 3.5 0.00 0.00 0.00 29 1003.9
20260503205320 73 174 0.9 3.5 0.00 0.00 0.00 31 1003.9
20260503204817 72 324 1.7 5.2 0.00 0.00 0.00 30 1003.8
20260503204314 72 277 2.6 4.3 0.00 0.00 0.00 30 1004.1
20260503203811 72 334 4.3 5.2 0.00 0.00 0.00 29 1004.1
20260503203309 72 357 1.7 5.2 0.00 0.00 0.00 29 1003.9
20260503202806 72 275 1.7 5.2 0.00 0.00 0.00 31 1004.2
20260503202304 71 270 0.9 4.3 0.00 0.00 0.00 32 1004.3
20260503201801 71 0 1.7 7.8 0.00 0.00 0.00 31 1004.2
20260503201258 71 117 0.9 4.3 0.00 0.00 0.00 30 1004.4
20260503200756 71 338 4.3 7.8 0.00 0.00 0.00 32 1004.4
20260503200251 71 315 2.6 5.2 0.00 0.00 0.00 32 1004.4
20260503195749 71 170 2.6 4.3 0.00 0.00 0.00 33 1004.6
20260503195245 70 296 0.0 5.2 0.00 0.00 0.00 32 1004.7
20260503194743 71 0 2.6 7.8 0.00 0.00 0.00 33 1004.7
20260503194238 71 351 3.5 3.5 0.00 0.00 0.00 35 1004.9
20260503193735 71 348 6.1 9.6 0.00 0.00 0.00 32 1005.0
20260503193231 70 334 2.6 9.6 0.00 0.00 0.00 33 1004.6
20260503192727 71 0 2.6 6.1 0.00 0.00 0.00 34 1004.8
20260503192222 71 354 2.6 3.5 0.00 0.00 0.00 34 1004.9
20260503191719 71 336 3.5 6.1 0.00 0.00 0.00 33 1004.8
20260503191216 70 308 1.7 2.6 0.00 0.00 0.00 32 1004.8
20260503190713 70 330 4.3 7.8 0.00 0.00 0.00 32 1005.0
20260503190210 70 307 1.7 7.0 0.00 0.00 0.00 33 1004.8
20260503185707 69 312 1.7 9.6 0.00 0.00 0.00 33 1004.8
20260503185202 71 332 2.6 4.3 0.00 0.00 0.00 34 1005.0
20260503184657 70 351 5.2 6.1 0.00 0.00 0.00 33 1004.9
20260503184154 70 10 1.7 5.2 0.00 0.00 0.00 39 1005.3
20260503183650 70 4 1.7 7.8 0.00 0.00 0.00 35 1005.0
20260503183148 70 345 2.6 4.3 0.00 0.00 0.00 34 1005.0
20260503182646 70 12 0.9 4.3 0.00 0.00 0.00 36 1005.2
20260503182144 70 330 1.7 4.3 0.00 0.00 0.00 36 1005.3
20260503181640 69 292 1.7 7.0 0.00 0.00 0.00 36 1005.0
20260503181137 69 3 3.5 7.8 0.00 0.00 0.00 35 1005.2
20260503180634 69 357 4.3 5.2 0.00 0.00 0.00 36 1005.3
20260503180132 68 8 3.5 7.8 0.00 0.00 0.00 36 1005.2
20260503175629 68 311 2.6 7.0 0.00 0.00 0.00 35 1005.6
20260503175126 68 307 2.6 6.1 0.00 0.00 0.00 36 1005.6
20260503174622 68 3 2.6 4.3 0.00 0.00 0.00 35 1005.5
20260503174120 68 332 1.7 4.3 0.00 0.00 0.00 37 1005.7
20260503173614 68 289 0.0 7.0 0.00 0.00 0.00 38 1005.5
20260503173111 67 340 4.3 5.2 0.00 0.00 0.00 38 1005.5
20260503172608 68 298 3.5 4.3 0.00 0.00 0.00 40 1005.4
20260503172106 68 295 0.0 4.3 0.00 0.00 0.00 39 1005.5
20260503171602 68 252 3.5 5.2 0.00 0.00 0.00 39 1005.7
20260503171059 68 357 0.0 4.3 0.00 0.00 0.00 38 1005.4
20260503170555 67 347 2.6 6.1 0.00 0.00 0.00 39 1005.5
20260503150948 63 5 0.9 7.0 0.00 0.00 0.00 49 1005.3
20260503150445 62 32 3.5 7.0 0.00 0.00 0.00 49 1005.3
20260503131338 55 21 2.6 4.3 0.00 0.00 0.00 61 1004.4
20260503130835 54 346 4.3 4.3 0.00 0.00 0.00 62 1004.2
20260503130333 53 334 0.0 6.1 0.00 0.00 0.00 62 1004.2
20260503110726 48 225 2.6 3.5 0.00 0.00 0.00 66 1002.4
20260503110224 48 198 1.7 3.5 0.00 0.00 0.00 65 1002.1